Find Starlink 30772

NORAD ID: 58135 Int'l Des: 2023-162 Owner: SPXS Country: US Constellation: starlink operational
LEOCIRCULAR

Live Position

Loading 3D Globe...

About Starlink 30772

Description loading...

Upcoming Passes

Passes for default location (London). Set your location on the main map for personalized predictions.

Altitude History

Loading altitude history...

Two-Line Element Set

1 58135U 23162T 26106.78129773 .00000533 00000-0 28911-4 0 9991
2 58135 43.0023 277.2848 0001340 267.4136 92.6562 15.27574361138138
Epoch: Apr 16, 2026 • Age: 17 hours

Current Status

Altitude 482.3 km
Velocity 7.63 km/s
Sub-Earth Point 6.64°N, 106.13°W
Launch Date Oct 22, 2023
Age 2.4 years
Type internet

Technical Details

Classification Payload
Mass 730.00 kg
Dry Mass 700.00 kg
Total Mass 730.00 kg
Length 0.30 m
Diameter 4.10 m
Span 29.00 m
Shape Box + pan
Manufacturer SPXS
Bus Type Starlink V2M
Phase Status In Orbit
Owner/State SPXS/US

Most Searched